Weather in Zolotovo

Russia / Pskov Oblast     56°44′13″N   28°19′26″E
temp.,
°C
wind,
m/s
gust,
m/s
humid.,
%
clouds,
%
prec.,
mm/h
press.,
hPa
HPBL,
m
21 october, thu
thu2100:00+13sw82080100 0.0 9941351
03:00+13sw81981100 0.0 9931346
06:00+14sw71576100 0.0 9921132
09:00+13sw7157690 0.0 9931167
12:00+15sw61373100 0.0 9931097
15:00+14ssw51175100 0.0 991932
18:00+12s71485100 0.4 987659
21:00+12ssw71978100 1.4 9841787
22 october, fri
fri2200:00+12sw81975100 0.6 9831950
03:00+9wsw918655 0.7 9871661
06:00+8sw81771100 0.0 9881576
09:00+7wsw81670100 0.1 9891639
12:00+8wsw9166147 0.1 9911642
15:00+8wsw816616 0.3 9931888
18:00+7sw81574100 0.1 9951426
21:00+7sw71471100 0.3 9951464
23 october, sat
sat2300:00+6sw71381100 0.1 9951317
03:00+6sw51083100 0.1 995998
06:00+4wsw41184100 0.8 997722
09:00+4wsw5128387 0.8 999690
12:00+6wsw61075100 0.0 1001998
15:00+6wsw61079100 0.1 10031173
18:00+4wnw598549 0.4 1005864
21:00+3wnw41093100 0.4 1009795
24 october, sun
sun2400:00+3nw51091100 0.4 1012799
03:00+2nw5986100 0.5 10151015
06:00+2nw5108199 0.1 10171116
09:00+1nw5118394 0.1 1020859
12:00+3nnw586789 0.0 10231151
15:00+3nnw4761100 0.1 10261407
18:00+1nw3770100 0.0 1028232
21:00+1wnw2574100 0.0 1029207
25 october, mon
mon2500:000w1177100 0.0 103029
03:00−1sw238154 0.0 103152
06:00−1ssw257896 0.0 1031118
09:000ssw3107868 0.0 1030282
12:00+6sw596547 0.0 1030581
15:00+7ssw510625 0.0 1028882
18:00+4ssw411735 0.0 1027465
21:00+3ssw5147635 0.0 1027476